Location: Pedholt
(56.0260°N, 10.2097°E)
Time: 20:00:52
(UTC+00:00)

Transit 2A Rocket - Pass Details

Date: 05 August 2021
Orbit: 586 x 917 km, 66.7° (Epoch: 27 September)

Event Time Altitude Azimuth Distance (km) Brightness Sun altitude
Rises 12:43:36 0° 204° (SSW) 2,883 8.7 48.1°
Reaches altitude 10° 12:45:49 10° 199° (SSW) 2,016 8.1 47.9°
Maximum altitude 12:50:12 51° 124° (SE) 846 5.9 47.6°
Drops below altitude 10° 12:55:03 10° 49° (NE) 2,214 7.1 47.2°
Sets 12:57:34 0° 45° (NE) 3,197 7.8 47.1°
